TimeCDT,TemperatureF,Dew PointF,Humidity,Sea Level PressureIn,VisibilityMPH,Wind Direction,Wind SpeedMPH,Gust SpeedMPH,PrecipitationIn,Events,Conditions,WindDirDegrees,DateUTC
12:15 AM,46.4,46.4,100,29.88,0.2,Calm,Calm,-,N/A,Fog,Fog,0,2013-04-29 05:15:00
12:35 AM,46.4,46.4,100,29.88,0.2,Calm,Calm,-,N/A,Fog,Fog,0,2013-04-29 05:35:00
12:55 AM,44.6,44.6,100,29.89,0.2,Calm,Calm,-,N/A,Fog,Fog,0,2013-04-29 05:55:00
1:15 AM,44.6,44.6,100,29.88,0.2,Calm,Calm,-,N/A,Fog,Fog,0,2013-04-29 06:15:00
1:35 AM,44.6,44.6,100,29.88,0.5,Calm,Calm,-,N/A,Fog,Fog,0,2013-04-29 06:35:00
1:55 AM,42.8,42.8,100,29.88,0.2,Calm,Calm,-,N/A,Fog,Fog,0,2013-04-29 06:55:00
2:15 AM,44.6,44.6,100,29.87,2.5,Calm,Calm,-,N/A,,Scattered Clouds,0,2013-04-29 07:15:00
2:35 AM,42.8,42.8,100,29.87,1.2,Calm,Calm,-,N/A,,Mist,0,2013-04-29 07:35:00
2:55 AM,42.8,42.8,100,29.87,0.5,Calm,Calm,-,N/A,Fog,Fog,0,2013-04-29 07:55:00
3:15 AM,42.8,42.8,100,29.87,0.8,Calm,Calm,-,N/A,,Scattered Clouds,0,2013-04-29 08:15:00
3:35 AM,44.6,42.8,93,29.87,1.8,SSW,3.5,-,N/A,,Mist,200,2013-04-29 08:35:00
3:55 AM,42.8,42.8,100,29.88,1.0,SSW,3.5,-,N/A,,Mostly Cloudy,210,2013-04-29 08:55:00
4:15 AM,46.4,46.4,100,29.88,0.2,SSW,3.5,-,N/A,Fog,Fog,210,2013-04-29 09:15:00
4:35 AM,48.2,46.4,93,29.89,0.8,SW,3.5,-,N/A,,Mostly Cloudy,220,2013-04-29 09:35:00
4:55 AM,48.2,48.2,100,29.89,3.0,SSW,4.6,-,N/A,,Clear,210,2013-04-29 09:55:00
5:15 AM,48.2,48.2,100,29.91,3.0,SW,4.6,-,N/A,,Clear,220,2013-04-29 10:15:00
5:35 AM,50.0,48.2,94,29.91,4.0,SSW,4.6,-,N/A,,Clear,210,2013-04-29 10:35:00
5:55 AM,48.2,46.4,93,29.91,2.5,SW,4.6,-,N/A,,Clear,230,2013-04-29 10:55:00
6:15 AM,48.2,48.2,100,29.92,2.0,SSW,4.6,-,N/A,,Clear,210,2013-04-29 11:15:00
6:35 AM,50.0,50.0,100,29.93,3.0,SW,4.6,-,N/A,,Clear,220,2013-04-29 11:35:00
6:55 AM,50.0,50.0,100,29.94,4.0,SW,4.6,-,N/A,,Clear,230,2013-04-29 11:55:00
7:15 AM,51.8,51.8,100,29.94,5.0,SW,4.6,-,N/A,,Clear,230,2013-04-29 12:15:00
7:35 AM,51.8,51.8,100,29.95,5.0,WSW,5.8,-,N/A,,Clear,250,2013-04-29 12:35:00
7:55 AM,53.6,53.6,100,29.94,7.0,SW,4.6,-,N/A,,Clear,230,2013-04-29 12:55:00
8:15 AM,55.4,53.6,94,29.94,10.0,SW,4.6,-,N/A,,Clear,220,2013-04-29 13:15:00
8:35 AM,59.0,51.8,77,29.94,10.0,SW,5.8,-,N/A,,Clear,230,2013-04-29 13:35:00
8:55 AM,60.8,51.8,72,29.93,10.0,SW,6.9,-,N/A,,Clear,230,2013-04-29 13:55:00
9:15 AM,62.6,51.8,68,29.93,10.0,SSW,8.1,-,N/A,,Clear,210,2013-04-29 14:15:00
9:35 AM,62.6,51.8,68,29.93,10.0,West,6.9,-,N/A,,Clear,270,2013-04-29 14:35:00
9:55 AM,64.4,51.8,64,29.93,10.0,SSW,9.2,-,N/A,,Clear,210,2013-04-29 14:55:00
10:15 AM,64.4,51.8,64,29.93,10.0,SSW,9.2,-,N/A,,Clear,200,2013-04-29 15:15:00
10:35 AM,68.0,50.0,52,29.93,10.0,SW,10.4,-,N/A,,Clear,230,2013-04-29 15:35:00
10:55 AM,68.0,50.0,52,29.93,10.0,WSW,8.1,-,N/A,,Clear,240,2013-04-29 15:55:00
11:15 AM,69.8,50.0,49,29.92,10.0,SW,8.1,-,N/A,,Clear,220,2013-04-29 16:15:00
11:35 AM,68.0,50.0,52,29.92,10.0,SW,10.4,-,N/A,,Scattered Clouds,230,2013-04-29 16:35:00
11:55 AM,68.0,50.0,52,29.91,10.0,South,8.1,-,N/A,,Mostly Cloudy,190,2013-04-29 16:55:00
12:15 PM,68.0,50.0,52,29.91,10.0,SW,8.1,-,N/A,,Overcast,230,2013-04-29 17:15:00
12:35 PM,68.0,48.2,49,29.91,10.0,SSW,6.9,-,N/A,,Mostly Cloudy,210,2013-04-29 17:35:00
12:55 PM,69.8,50.0,49,29.90,10.0,SSW,10.4,18.4,N/A,,Mostly Cloudy,210,2013-04-29 17:55:00
1:15 PM,69.8,50.0,49,29.90,10.0,South,5.8,-,N/A,,Mostly Cloudy,190,2013-04-29 18:15:00
1:35 PM,69.8,48.2,46,29.89,10.0,SSW,12.7,-,N/A,,Overcast,210,2013-04-29 18:35:00
1:55 PM,69.8,48.2,46,29.89,10.0,SSW,11.5,20.7,N/A,,Mostly Cloudy,200,2013-04-29 18:55:00
2:15 PM,69.8,48.2,46,29.89,10.0,South,8.1,19.6,N/A,,Mostly Cloudy,180,2013-04-29 19:15:00
2:35 PM,71.6,48.2,43,29.88,10.0,SSW,12.7,16.1,N/A,,Mostly Cloudy,200,2013-04-29 19:35:00
2:55 PM,71.6,48.2,43,29.87,10.0,SSW,15.0,19.6,N/A,,Mostly Cloudy,200,2013-04-29 19:55:00
3:15 PM,69.8,46.4,43,29.87,10.0,South,10.4,-,N/A,,Scattered Clouds,190,2013-04-29 20:15:00
3:35 PM,71.6,48.2,43,29.86,10.0,SSW,13.8,19.6,N/A,,Mostly Cloudy,200,2013-04-29 20:35:00
3:55 PM,71.6,48.2,43,29.86,10.0,South,10.4,16.1,N/A,,Scattered Clouds,170,2013-04-29 20:55:00
4:15 PM,69.8,46.4,43,29.86,10.0,South,12.7,-,N/A,,Scattered Clouds,180,2013-04-29 21:15:00
4:35 PM,68.0,48.2,49,29.86,10.0,SSW,13.8,18.4,N/A,,Scattered Clouds,210,2013-04-29 21:35:00
4:55 PM,69.8,48.2,46,29.87,10.0,South,9.2,17.3,N/A,,Scattered Clouds,180,2013-04-29 21:55:00
5:15 PM,71.6,48.2,43,29.86,10.0,South,8.1,-,N/A,,Scattered Clouds,170,2013-04-29 22:15:00
5:35 PM,69.8,48.2,46,29.85,10.0,South,8.1,-,N/A,,Scattered Clouds,180,2013-04-29 22:35:00
5:55 PM,69.8,48.2,46,29.85,10.0,SSE,8.1,19.6,N/A,,Clear,160,2013-04-29 22:55:00
6:15 PM,69.8,48.2,46,29.84,10.0,South,6.9,16.1,N/A,,Clear,170,2013-04-29 23:15:00
6:35 PM,68.0,48.2,49,29.85,10.0,South,9.2,-,N/A,,Clear,180,2013-04-29 23:35:00
6:55 PM,68.0,48.2,49,29.85,10.0,South,10.4,16.1,N/A,,Clear,170,2013-04-29 23:55:00
7:15 PM,66.2,50.0,56,29.85,10.0,SSE,6.9,-,N/A,,Clear,160,2013-04-30 00:15:00
7:35 PM,64.4,50.0,59,29.85,10.0,South,6.9,-,N/A,,Clear,170,2013-04-30 00:35:00
7:55 PM,64.4,50.0,59,29.85,10.0,South,8.1,-,N/A,,Clear,170,2013-04-30 00:55:00
8:15 PM,64.4,50.0,59,29.85,10.0,South,9.2,-,N/A,,Clear,170,2013-04-30 01:15:00
8:35 PM,64.4,50.0,59,29.86,10.0,South,9.2,-,N/A,,Clear,170,2013-04-30 01:35:00
8:55 PM,62.6,51.8,68,29.86,10.0,South,10.4,-,N/A,,Clear,180,2013-04-30 01:55:00
9:15 PM,62.6,51.8,68,29.86,10.0,South,11.5,16.1,N/A,,Clear,170,2013-04-30 02:15:00
9:35 PM,62.6,50.0,63,29.87,10.0,South,10.4,-,N/A,,Clear,170,2013-04-30 02:35:00
9:55 PM,62.6,50.0,63,29.86,10.0,South,10.4,-,N/A,,Clear,170,2013-04-30 02:55:00
10:15 PM,62.6,50.0,63,29.86,10.0,South,9.2,19.6,N/A,,Clear,170,2013-04-30 03:15:00
10:35 PM,60.8,50.0,68,29.86,10.0,South,8.1,-,N/A,,Clear,170,2013-04-30 03:35:00
10:55 PM,60.8,51.8,72,29.87,10.0,SSE,8.1,-,N/A,,Clear,160,2013-04-30 03:55:00
11:15 PM,60.8,51.8,72,29.87,10.0,South,6.9,-,N/A,,Clear,170,2013-04-30 04:15:00
11:35 PM,60.8,51.8,72,29.87,10.0,South,9.2,-,N/A,,Clear,180,2013-04-30 04:35:00
11:55 PM,60.8,51.8,72,29.87,10.0,South,9.2,16.1,N/A,,Clear,180,2013-04-30 04:55:00